TimeMST,TemperatureF,Dew PointF,Humidity,Sea Level PressureIn,VisibilityMPH,Wind Direction,Wind SpeedMPH,Gust SpeedMPH,PrecipitationIn,Events,Conditions,WindDirDegrees,DateUTC
12:56 AM,28.0,27.0,96,30.00,-9999.0,Calm,Calm,-,0.03,,Unknown,0,2012-11-25 07:56:00
1:56 AM,28.0,27.0,96,29.99,-9999.0,Calm,Calm,-,0.03,,Unknown,0,2012-11-25 08:56:00
2:56 AM,28.0,27.0,96,29.99,-9999.0,Calm,Calm,-,0.01,,Unknown,0,2012-11-25 09:56:00
3:56 AM,28.0,26.1,92,29.95,-9999.0,Calm,Calm,-,0.04,,Unknown,0,2012-11-25 10:56:00
4:56 AM,28.0,26.1,92,29.94,-9999.0,Variable,4.6,-,0.02,,Unknown,0,2012-11-25 11:56:00
5:56 AM,28.0,25.0,88,29.93,-9999.0,Variable,3.5,-,0.04,,Unknown,0,2012-11-25 12:56:00
6:56 AM,28.0,25.0,88,29.93,-9999.0,Variable,4.6,-,0.01,,Unknown,0,2012-11-25 13:56:00
7:56 AM,28.0,25.0,88,29.94,-9999.0,Calm,Calm,-,N/A,,Unknown,0,2012-11-25 14:56:00
8:56 AM,28.0,24.1,85,29.94,-9999.0,Calm,Calm,-,N/A,,Unknown,0,2012-11-25 15:56:00
9:56 AM,30.9,26.1,82,29.95,-9999.0,Variable,3.5,-,N/A,,Unknown,0,2012-11-25 16:56:00
10:56 AM,30.0,26.1,85,29.95,-9999.0,Variable,3.5,-,0.01,,Unknown,0,2012-11-25 17:56:00
11:56 AM,30.9,25.0,79,29.94,-9999.0,West,6.9,17.3,N/A,,Unknown,280,2012-11-25 18:56:00
12:56 PM,32.0,23.0,69,29.92,-9999.0,WNW,10.4,16.1,0.01,,Unknown,290,2012-11-25 19:56:00
1:56 PM,28.9,23.0,78,29.95,-9999.0,WNW,6.9,21.9,N/A,,Unknown,290,2012-11-25 20:56:00
2:56 PM,27.0,23.0,85,29.97,-9999.0,WNW,9.2,-,0.03,,Unknown,290,2012-11-25 21:56:00
3:56 PM,27.0,21.9,81,29.99,-9999.0,West,5.8,-,0.02,,Unknown,280,2012-11-25 22:56:00
4:56 PM,25.0,21.0,85,30.02,-9999.0,Variable,5.8,-,0.05,,Unknown,0,2012-11-25 23:56:00
5:56 PM,24.1,18.0,77,30.05,-9999.0,NW,4.6,-,0.01,,Unknown,320,2012-11-26 00:56:00
6:56 PM,21.9,16.0,78,30.08,-9999.0,WNW,4.6,-,N/A,,Unknown,300,2012-11-26 01:56:00
7:56 PM,19.9,10.9,68,30.12,-9999.0,NW,8.1,-,N/A,,Unknown,320,2012-11-26 02:56:00
8:56 PM,18.0,12.0,78,30.15,-9999.0,NW,9.2,-,N/A,,Unknown,310,2012-11-26 03:56:00
9:56 PM,16.0,10.9,81,30.17,-9999.0,Variable,3.5,-,N/A,,Unknown,0,2012-11-26 04:56:00
10:56 PM,12.9,8.1,81,30.23,-9999.0,Calm,Calm,-,N/A,,Unknown,0,2012-11-26 05:56:00
11:56 PM,6.1,3.0,87,30.29,-9999.0,NW,3.5,-,N/A,,Unknown,310,2012-11-26 06:56:00